Accueil
METAR-TAF:

METAR-TAF

Aéroports :

Monte Malanotte

Prato Nevoso, Italie

latitude: 44-15N, longitude: 007-48E, altitude: 1741 m

Observation

Le bulletin a été fait il y a 9 heures et 9 minutes, à 17:55 UTC
Vent 5 kt de nord/nord-ouest, variant entre nord-ouest et nord-est
Température 16°C
Humidité 88%
Pression 1019 hPa
Visibilité: 2500 m
Nuages épars à une hauteur de 2000 ft
brume

METAR: LIMY 211755Z 34005KT 310V050 2500 BR SCT020 16/14 Q1019 RMK SCT VAL FOSCHIA VIS MIN 2500

Heure: 05:04 (03:04 UTC)


TAF: absent

Observations et prévisions météorologiques de plus de 4000 aéroports (messages METAR et TAF).

Les stations disponibles sont représentées par des disques jaunes et rouges sur la carte.

Passer la souris dessus pour voir le nom de la station.

Cliquer dessus pour voir les observations et prévisions météorologiques.

Pour changer de carte: cliquez sur les boutons verts avec une croix noire pour zoomer, sur le bouton vert avec un tiret pour effectuer un zoom arrière, ou sur les flèches vertes pour les cartes adjacentes.


METAR-TAF: